This is the latest recevied weather packets stored in our database for station/object WW5JC. If no packets are shown the sender has not sent any weather packets the latest 10 day(s).
| Time | Temp. | Humidity | Pressure | Rain* | Wind** | Luminosity | Snow |
|---|---|---|---|---|---|---|---|
| 1788291498 | 36.11° C | 44% | 1017.3 hPa | 0 mm | - | 637 W/m² | - |
| 1788291196 | 36.67° C | 44% | 1017.3 hPa | 0 mm | - | 647 W/m² | - |
| 1788290891 | 36.67° C | 44% | 1017.3 hPa | 0 mm | - | 647 W/m² | - |
| 1788290587 | 36.67° C | 44% | 1017.3 hPa | 0 mm | - | 655 W/m² | - |
| 1788290282 | 36.67° C | 43% | 1017.4 hPa | 0 mm | - | 659 W/m² | - |
| 1788289978 | 36.11° C | 44% | 1017.6 hPa | 0 mm | - | 662 W/m² | - |
| 1788289674 | 36.11° C | 45% | 1017.3 hPa | 0 mm | - | 684 W/m² | - |
| 1788289368 | 35.56° C | 45% | 1017.5 hPa | 0 mm | - | 703 W/m² | - |
| 1788289067 | 36.67° C | 43% | 1017.8 hPa | 0 mm | - | 680 W/m² | - |
| 1788288766 | 36.11° C | 44% | 1017.6 hPa | 0 mm | - | 690 W/m² | - |
| 1788288461 | 36.11° C | 46% | 1017.9 hPa | 0 mm | - | 699 W/m² | - |
| 1788288156 | 35.56° C | 47% | 1018.1 hPa | 0 mm | - | 642 W/m² | - |
| 1788287852 | 35.56° C | 46% | 1018 hPa | 0 mm | - | 657 W/m² | - |
| 1788287551 | 35.56° C | 47% | 1018.1 hPa | 0 mm | - | 721 W/m² | - |
| 1788287247 | 36.11° C | 46% | 1018.4 hPa | 0 mm | - | 708 W/m² | - |
| 1788286946 | 35.56° C | 45% | 1018.4 hPa | 0 mm | - | 702 W/m² | - |
| 1788286641 | 35.56° C | 46% | 1018.6 hPa | 0 mm | - | 695 W/m² | - |
| 1788286335 | 35° C | 48% | 1018.7 hPa | 0 mm | - | 718 W/m² | - |
| 1788286034 | 34.44° C | 51% | 1018.7 hPa | 0 mm | - | 202 W/m² | - |
| 1788285730 | 35.56° C | 50% | 1018.9 hPa | 0 mm | - | 308 W/m² | - |
| 1788285429 | 35.56° C | 47% | 1019 hPa | 0 mm | - | 737 W/m² | - |
| 1788285129 | 35.56° C | 45% | 1018.8 hPa | 0 mm | - | 727 W/m² | - |
| 1788284824 | 35° C | 48% | 1019.1 hPa | 0 mm | - | 717 W/m² | - |
| 1788284520 | 36.11° C | 47% | 1019 hPa | 0 mm | - | 678 W/m² | - |
| 1788284215 | 35.56° C | 49% | 1019 hPa | 0 mm | - | 691 W/m² | - |
* Rain latest hour (hover to see other rain measurements)
** Current wind speed in m/s (hover to see current wind gust speed)